Showing default

COSMOS 533, 6268

Orbit data source: Space-Track

COSMOS 533, 6268 is a payload satellite owned by OKB-10 (CIS) in LEO that was launched on Wed, 01 Nov 1972 UTC via a KOSMOS 11K65M launch vehicle from the Plesetsk Missile And Space Complex (PKMTR). Payload-class satellites include a variety of spacecraft equipped with specific instruments for various scientific and technological missions. These include communications satellites like Starlink; space stations such as the ISS; scientific satellites like the Hubble; Earth observation satellites from companies like Planet Labs, Umbra, and HawkEye 360; GPS; miniature CubeSats for education and research; and military/defense satellites.

Loading next visibility...
Identifier
6268, 1972-087F
Orbit
LEO
Country
Flag of CISCIS
Related business
Manufacturer
OKB-10
Mission
Spacecraft
Bus & Motor
STRELA-1 11F625, Unknown motor
Mass
60 kg wet, 60 kg dry
Launch date (UTC)
1972-11-01 (54 years ago)
Launch vehicle
KOSMOS 11K65M
Launch site
Plesetsk Missile And Space Complex (PKMTR)
Object type
Payload
Rocket body
Debris
Shape & HBR
Unknown
Radar Cross Section
Medium (>0.1 m² and <1 m²)

Expand to show TLE details & history
Last TLE update: 2 days ago

TLE from 2 days ago
0 COSMOS 533
1  6268U 72087F   26171.46292691 -.00000022  00000-0 -23035-4 0  9995
2  6268  74.0325 198.4271 0098200 267.7106 201.6648 12.67613494481716
Epoch: 2026-06-20T11:06Z
TLE epoch observation values (Epoch: 2026-06-20T11:06:36.885Z)
Latitude
65.48881°
Longitude
-95.54644°
Altitude
1,473.643 km
Speed
7.1 km/s
True Right ascension
22h 39m 08s
True Declination
65° 22' 14"
Sunlit
Object was in daylight at epoch
Visualization orbit readout
Latitude
Unknown
Longitude
Unknown
Altitude
Unknown
Speed
Unknown
Apparent Right ascension
Unknown
Apparent Declination
Unknown
Sunlit
N/A
Visualization observer readout
Local Sidereal Time
00:39:34
Azimuth
Unknown
Elevation
Unknown
Doppler factor
Unknown
Orbital elements
Apogee altitude
1,465.769 km
Perigee altitude
1,313.213 km
Semi-major axis
7,767.628 km
Eccentricity
0.00982
Inclination
74.0325°
RAAN
198.4271°
Arg. of periapsis
267.7106°
True anomaly
201.25406°
Mean anomaly
201.6648°
Eccentric anomaly
201.45897°
Mean motion
3.17037 °/min
Orbital period
113.55 mins
BSTAR
-0.000023035
Loading maneuver chart data...
Computing Atmospheric mass density...
Loading historical data...
Loading historical data...
Loading historical data...
Loading historical data...
Loading historical data...
Loading historical data...
Loading historical data...

Documentation

Showing up to 5 results
|